Location: Joplin, MO
(37.0842°N, 94.5133°W)
Time: 20:08:24
(UTC+02:00)

Courier 1B Rocket - Pass Details

Date: 05 April 2023
Orbit: 920 x 1202 km, 28.2° (Epoch: 08 June)

Event Time Altitude Azimuth Distance (km) Brightness Sun altitude
Rises 00:18:42 0° 239° (WSW) 4,089 9.4 27.7°
Reaches altitude 10° 00:21:48 10° 231° (SW) 3,124 8.9 27.1°
Maximum altitude 00:28:47 37° 168° (SSE) 1,759 6.6 25.8°
Drops below altitude 10° 00:35:33 10° 104° (ESE) 3,028 7.1 24.5°
Sets 00:38:30 0° 96° (E) 3,951 7.6 23.9°
